Location: 相模原市立博物館
(35.5593°N, 139.3931°E)
Time: 21:56:50
(UTC+09:00)

ISS - Visible Passes

Search period start: 15 May 2025 00:00
Search period end: 25 May 2025 00:00
Orbit: 416 x 420 km, 51.6° (Epoch: 15 May)

Date Brightness Start Highest point End Pass type
(mag) Time Alt. Az. Time Alt. Az. Time Alt. Az.
16 May -0.5 19:08:12 10° NW 19:09:25 11° NNW 19:10:37 10° N visible
18 May -0.2 22:25:06 10° N 22:25:10 10° N 22:25:10 10° N visible
19 May -0.6 21:37:56 10° N 21:38:46 11° NNE 21:38:46 11° NNE visible
20 May -0.2 22:25:06 10° NNW 22:25:16 11° NNW 22:25:16 11° NNW visible
21 May -1.1 21:37:22 10° NNW 21:38:53 18° N 21:38:53 18° N visible
22 May -1.3 20:49:47 10° N 20:51:50 15° NNE 20:52:30 14° NE visible
23 May -0.9 20:02:38 10° N 20:03:31 11° NNE 20:04:23 10° NE visible
23 May -1.4 21:37:33 10° NW 21:39:03 24° NNW 21:39:03 24° NNW visible
24 May -2.5 20:49:38 10° NNW 20:52:42 33° NE 20:52:42 33° NE visible
